Regional Weather Roundup
Issued by NWS Cleveland, OH

Home | Current Version | Previous Version | Graphics & Text | Print | Product List | Glossary On
Versions: 1 2 3 4 5 6 7 8 9 10 11 12 13 14 15 16 17 18 19 20 21 22 23 24 25 26 27 28 29 30 31 32 33 34 35 36 37 38 39 40 41 42 43 44 45 46 47 48 49 50
000
ASUS41 KCLE 170900
RWRCLE
OHIO REGIONAL WEATHER ROUNDUP
NATIONAL WEATHER SERVICE WILMINGTON, OH
400 AM EST SUN DEC 17 2017

NOTE: "FAIR" INDICATES FEW OR NO CLOUDS BELOW 12,000 FEET WITH NO
SIGNIFICANT WEATHER AND/OR OBSTRUCTIONS TO VISIBILITY.

OHZ001>008-015>018-024>027-034-035-043-044-171000-
   NORTHWEST OHIO

CITY           SKY/WX    TMP DP  RH WIND       PRES   REMARKS
DEFIANCE       FOG       29  28  96 E5        30.15R VSB 1/2 WCI  24
FINDLAY        FAIR      26  23  88 CALM      30.12R FOG
TOLEDO EXPRESS CLOUDY    29  29 100 E6        30.14F WCI  23
TOLEDO EXEC    CLOUDY    30  27  88 NE7       30.15F WCI  23
LIMA           FAIR      31  26  82 S7        30.13R WCI  24
$$

OHZ009>014-019>023-028>033-038-089-171000-
   NORTHEAST OHIO

CITY           SKY/WX    TMP DP  RH WIND       PRES   REMARKS
CLE-HOPKINS    FAIR      26  24  92 E3        30.18R
CLE-LAKEFRONT  FAIR      29  26  89 CALM      30.16S FOG
CUY CO. ARPT   NOT AVBL
LORAIN-ELYRIA  FAIR      22  16  78 CALM      30.15S HAZE
ASHTABULA      FOG       23  22  96 E5        30.16F VSB 1/2 WCI  17
AKRON-CANTON   FAIR      27  21  78 S6        30.13F WCI  20
WOOSTER        NOT AVBL
MANSFIELD      FAIR      30  25  81 S7        30.13S WCI  23
YOUNGSTOWN     FAIR      22  20  92 E6        30.14S WCI  14
$$

OHZ042-051>053-060>062-070>072-077>081-171000-
  SOUTHWEST OHIO

CITY           SKY/WX    TMP DP  RH WIND       PRES   REMARKS
CINC-COVINGTON CLOUDY    38  30  73 S9        30.17R
CINC-LUNKEN    FAIR      29  27  92 CALM      30.21R
HAMILTON       FAIR      30  27  88 E3        30.18R
DAYTON         NOT AVBL
WRIGHT-PAT AFB FAIR      34  29  83 SE5       30.15R WCI  29
DAYTON GENERAL FAIR      36  29  75 S10       30.16R
WILMINGTON     FAIR      34  29  82 S9        30.17R WCI  27
$$

OHZ036-037-039>041-045>050-054>059-063>069-073>076-082>088-171000-
  CENTRAL AND SOUTHEAST OHIO

CITY           SKY/WX    TMP DP  RH WIND       PRES   REMARKS
COLUMBUS       FAIR      33  27  78 SE3       30.16F
OSU AIRPORT    FAIR      32  28  85 S6        30.15F WCI  26
BOLTON FIELD   NOT AVBL
RICKENBACK AFB NOT AVBL
NEWARK         FAIR      25  22  88 CALM      30.16F
MARION         FAIR      31  26  82 S9        30.14S WCI  23
LANCASTER      FAIR      36  28  73 S7        30.18S
ZANESVILLE     FAIR      26  22  84 S5        30.17F WCI  20
NEW PHILLY     FAIR      25  23  92 CALM      30.17F
$$




USA.gov is the U.S. government's official web portal to all federal, state and local government web resources and services.